STARLINK-37098, 68192

Orbit data source: Space-Track

STARLINK-37098, 68192 is a payload satellite owned by SpaceX/Seattle (US) in LEO that was launched on Sat, 14 Mar 2026 UTC via an FALCON 9 launch vehicle from the Air Force Eastern Test Range (AFETR). Payload-class satellites include a variety of spacecraft equipped with specific instruments for various scientific and technological missions. These include communications satellites like Starlink; space stations such as the ISS; scientific satellites like the Hubble; Earth observation satellites from companies like Planet Labs, Umbra, and HawkEye 360; GPS; miniature CubeSats for education and research; and military/defense satellites.

Loading next visibility...
Identifier
68192, 2026-050AB
Orbit
LEO
Country
Flag of USUS
Related business
Manufacturer
SpaceX/Seattle
Mission
Operational spacecraft
Bus & Motor
STARLINK V2MO, Unknown motor
Mass
575 kg wet, ~530 kg dry
Launch date (UTC)
2026-03-14 (3 months ago)
Launch vehicle
FALCON 9
Launch site
Air Force Eastern Test Range (AFETR)
Object type
Payload
Rocket body
Debris
Shape & HBR
Unknown shape, 17.7 m
Radar Cross Section
Large (>1 m²)

Expand to show TLE details & history
Last TLE update: 18 hours ago

TLE from 18 hours ago
0 STARLINK-37098
1 68192U 26050AB  26171.23681875  .00018890  00000-0  56865-3 0  9995
2 68192  53.1580 148.9994 0001207  98.2503 261.8636 15.34407473 16402
Epoch: 2026-06-20T05:41Z
TLE epoch observation values (Epoch: 2026-06-20T05:41:01.139Z)
Latitude
-0.00009°
Longitude
155.29026°
Altitude
463.699 km
Speed
7.636 km/s
True Right ascension
09h 55m 59s
True Declination
0° 00' 00"
Sunlit
Object was in daylight at epoch
Visualization orbit readout
Latitude
Unknown
Longitude
Unknown
Altitude
Unknown
Speed
Unknown
Apparent Right ascension
Unknown
Apparent Declination
Unknown
Sunlit
N/A
Visualization observer readout
Local Sidereal Time
10:18:40
Azimuth
Unknown
Elevation
Unknown
Doppler factor
Unknown
Orbital elements
Apogee altitude
463.764 km
Perigee altitude
462.113 km
Semi-major axis
6,841.075 km
Eccentricity
0.00012
Inclination
53.158°
RAAN
148.9994°
Arg. of periapsis
98.2503°
True anomaly
261.84991°
Mean anomaly
261.8636°
Eccentric anomaly
261.85675°
Mean motion
3.83581 °/min
Orbital period
93.85 mins
BSTAR
0.00056865
Loading maneuver chart data...
Computing Atmospheric mass density...
Loading historical data...
Loading historical data...
Loading historical data...
Loading historical data...
Loading historical data...
Loading historical data...
Loading historical data...

Documentation

Showing up to 5 results
|